Hourly Weather Roundup
Issued by NWS Central Illinois

Home | Current Version | Previous Version | Text Only | Print | Product List | Glossary On
Versions: 1 2 3 4 5 6 7 8 9 10 11 12 13 14 15 16 17 18 19 20 21 22 23 24 25 26 27 28 29 30 31 32 33 34 35 36 37 38 39 40 41 42 43 44 45 46 47 48 49 50
000
NZUS43 KILX 281010
HWRILX

AREA WEATHER ROUNDUP
NATIONAL WEATHER SERVICE, LINCOLN IL
500 AM CDT FRI AUG 28 2015


CITY           SKY/WX    TMP DP  RH WIND       PRES   REMARKS
BLOOMINGTON    MOCLDY    61  59  93 S8        30.12F
CHAMPAIGN      CLEAR     57  56  96 E5        30.12S FOG
DANVILLE       CLEAR     54  54  98 CALM      30.11S FOG
DECATUR        PTCLDY    56  53  90 CALM      30.12R
EFFINGHAM      CLEAR     56  54  93 CALM      30.14R
FLORA          CLEAR     55  54  97 CALM      30.12F
GALESBURG      MOCLDY    58  57  96 SE5       30.09S
JACKSONVILLE   PTCLDY    57  55  93 CALM      30.10S
LACON          MOCLDY    58  55  91 CALM      30.10R
LAWRENCEVILLE  CLEAR     58  55  90 CALM      30.14S
LITCHFIELD     CLEAR     59  56  89 SE5       30.11S
$$


CITY           SKY/WX    TMP DP  RH WIND       PRES   REMARKS
LINCOLN        PTCLDY    59  56  91 CALM      30.11S
MACOMB         MOCLDY    54  54  99 SE3       30.11S
MATTOON        CLEAR     58  55  90 S3        30.12S
MT CARMEL AP   CLEAR     54  52  94 CALM      30.13F FOG
OLNEY-NOBLE AP FOG       54  54 100 CALM      30.13F VSB 1
PARIS          CLEAR     58  58  97 CALM      30.14S
PEORIA         MOCLDY    63  57  81 CALM      30.10S
PONTIAC        MOCLDY    58  58  99 SE3       30.13R
RANTOUL        CLEAR     59  57  94 SE3       30.12S
ROBINSON       FOG       53  52  97 CALM      30.14F VSB 1
SPRINGFIELD    PTCLDY    59  57  93 CALM      30.11S
TAYLORVILLE    PTCLDY    55  55 100 CALM      30.12R
$$

...REGIONAL REPORTS...


CITY           SKY/WX    TMP DP  RH WIND       PRES   REMARKS
CHICAGO O`HARE PTCLDY    59  55  87 S3        30.11F
KANKAKEE       CLEAR     55  55  97 CALM      30.12S
MOLINE         CLOUDY    61  57  87 CALM      30.08S
MOUNT STERLING PTCLDY    56  56  99 CALM      30.09R
MOUNT VERNON   CLEAR     54  48  82 CALM      30.13R
PITTSFIELD     PTCLDY    58  55  92 CALM      30.11R
QUINCY         PTCLDY    60  57  89 SE3       30.09R
ROCKFORD       CLOUDY    60  56  86 S5        30.12S
$$


CITY           SKY/WX    TMP DP  RH WIND       PRES   REMARKS
BURLINGTON     MOCLDY    62  58  86 SE7       30.07S
CEDAR RAPIDS   CLOUDY    60  59  96 CALM      30.09R
DES MOINES     LGT RAIN  65  60  84 E12       29.99F
KIRKSVILLE     MOCLDY    61  58  90 S9        30.05F
OTTUMWA        CLOUDY    61  60  97 N6        30.06R
ST LOUIS       PTCLDY    64  58  80 SE6       30.10S
$$


CITY           SKY/WX    TMP DP  RH WIND       PRES   REMARKS
TERRE HAUTE    CLOUDY    59  57  93 CALM      30.14R
EVANSVILLE     CLEAR     57  56  96 CALM      30.14R FOG
INDIANAPOLIS   CLEAR     61  56  83 E5        30.14S
LAFAYETTE      CLEAR     58  55  90 CALM      30.13S
MADISON        MOCLDY    60  55  83 S5        30.11R
MILWAUKEE      PTCLDY    57  53  86 CALM      30.12S
$$




USA.gov is the U.S. government's official web portal to all federal, state and local government web resources and services.